Flag for Germany Weather past 2 weeks in Schwabach, Bavaria, Germany

Now
46 °F

Passing clouds.


Feels Like: 46 °F
Forecast: 39 / 60 °F
Wind: 2 mph from North

Location: Nuernberg

Current Time: Sep 23, 2014 at 6:50:37 AM

Latest Report: Sep 23, 2014 at 6:20 AM


Visibility: N/A

Pressure: 30.12 "Hg

Humidity: 93%

Dew point: 45 °F

Location of SchwabachLocation

Historic Weather in Schwabach — Graph

°F

Schwabach temperature yesterday

Maximum temperature yesterday: 55 °F (at 12:20 AM)
Minimum temperature yesterday: 46 °F (at 8:20 PM)
Average temperature yesterday: 51 °F

Past Weeks' High & Low Weather Summary

 TemperatureHumidityPressure
High75 °F (Sep 8, 4:20 PM)100% (Sep 8, 5:20 AM)30.12 "Hg (Sep 8, 5:20 AM)
Low46 °F (Sep 11, 5:50 AM)53% (Sep 9, 1:50 PM)29.89 "Hg (Sep 17, 5:50 PM)
Average59 °F88%30.01 "Hg
* Reported Sep 8 5:20 AM — Sep 23 5:20 AM, Schwabach, Weather by CustomWeather, © 2014

Note: Actual official high and low records may vary slightly from our data, if they occured in-between our weather recording intervals... More about our weather records

Advertising

Schwabach weather history for previous 24 hours

 ConditionsComfort  
Time TempWeatherWind HumidityBarometerVisibility
5:20 AM
Sep 23
46 °FPassing clouds.5 mph93%30.09 "HgN/A
4:50 AM46 °FPassing clouds.5 mph93%30.09 "HgN/A
4:20 AM46 °FPassing clouds.8 mph93%30.09 "HgN/A
3:50 AM48 °FPassing clouds.6 mph87%30.09 "HgN/A
3:20 AM48 °FPassing clouds.5 mph87%30.09 "HgN/A
2:50 AM48 °FPassing clouds.6 mph87%30.09 "HgN/A
2:20 AM48 °FClear.9 mph87%30.09 "Hg10 mi
1:50 AM48 °FClear.7 mph87%30.09 "Hg10 mi
1:20 AM48 °FClear.8 mph87%30.09 "Hg10 mi
12:50 AM46 °FClear.8 mph93%30.09 "Hg10 mi
12:20 AM48 °FPassing clouds.8 mph87%30.09 "HgN/A
11:50 PM
Sep 22
48 °FPassing clouds.9 mph87%30.09 "HgN/A
11:20 PM48 °FPassing clouds.10 mph87%30.09 "HgN/A
10:50 PM48 °FPassing clouds.7 mph87%30.09 "HgN/A
10:20 PM48 °FPassing clouds.8 mph87%30.09 "HgN/A
9:50 PM48 °FPassing clouds.7 mph87%30.09 "HgN/A
9:20 PM48 °FPassing clouds.5 mph87%30.09 "HgN/A
8:50 PM46 °FClear.5 mph93%30.07 "Hg10 mi
8:20 PM46 °FClear.6 mph93%30.07 "Hg10 mi
7:50 PM48 °FSunny.6 mph87%30.07 "Hg10 mi
7:20 PM48 °FScattered clouds.5 mph94%30.07 "HgN/A
6:50 PM48 °FPassing clouds.8 mph94%30.04 "HgN/A
6:20 PM50 °FScattered clouds.8 mph88%30.01 "HgN/A
5:50 PM50 °FScattered clouds.7 mph88%30.01 "HgN/A
5:20 PM48 °FPartly sunny.7 mph94%30.01 "HgN/A
4:50 PM48 °FPartly sunny.6 mph87%30.01 "HgN/A
4:20 PM48 °FThunderstorms. Broken clouds.12 mph94%30.01 "Hg4 mi
3:50 PM55 °FThundershowers. Scattered clouds.18 mph72%29.95 "HgN/A
3:20 PM55 °FScattered clouds.17 mph77%29.95 "HgN/A
2:50 PM54 °FScattered clouds.12 mph82%29.98 "HgN/A
2:20 PM52 °FSprinkles. Partly sunny.22 mph82%29.98 "HgN/A
1:50 PM55 °FPartly sunny.16 mph72%29.98 "HgN/A
1:20 PM54 °FPartly sunny.18 mph77%30.01 "HgN/A
12:50 PM54 °FPartly sunny.17 mph77%30.01 "HgN/A
12:20 PM54 °FPartly sunny.20 mph82%30.01 "HgN/A
11:50 AM54 °FPartly sunny.17 mph82%30.01 "HgN/A
11:20 AM52 °FLight rain. Partly sunny.14 mph88%30.04 "HgN/A
10:50 AM54 °FPartly sunny.15 mph82%30.04 "HgN/A
10:20 AM52 °FPartly sunny.15 mph88%30.04 "HgN/A
9:50 AM52 °FPartly sunny.13 mph88%30.04 "HgN/A
9:20 AM52 °FPartly sunny.13 mph94%30.04 "HgN/A
8:50 AM50 °FBroken clouds.9 mph100%30.04 "Hg6 mi
8:20 AM50 °FPartly sunny.9 mph100%30.04 "Hg5 mi
7:50 AM50 °FSprinkles. Partly cloudy.9 mph94%30.04 "Hg5 mi
7:20 AM50 °FSprinkles. Passing clouds.9 mph100%30.04 "Hg3 mi
6:50 AM50 °FPassing clouds.9 mph94%30.04 "HgN/A
6:20 AM50 °FPartly cloudy.7 mph94%30.04 "HgN/A
Weather by CustomWeather, © 2014

See weather overviewHow to use our weather pages